Location: Coopersdale
(40.3556°N, 78.9372°W)
Time: 06:24:18
(UTC+00:00)

Tiros 1 despin weight - Pass Details

Date: 25 June 2021
Orbit: 593 x 642 km, 48.2° (Epoch: 02 August)

Event Time Altitude Azimuth Distance (km) Brightness Sun altitude
Exits shadow 08:29:39 18° 220° (SW) 1,464 ? -12.3°
Maximum altitude 08:32:46 60° 145° (SE) 685 ? -11.9°
Drops below altitude 10° 08:37:06 10° 65° (ENE) 1,926 ? -11.3°
Sets 08:39:24 0° 62° (ENE) 2,828 ? -11.0°
